{"data":{"norad_id":20253,"intl_designator":"1989-077A","name":"FLTSATCOM 8 (USA 46)","alt_names":[],"object_type":"PAYLOAD","status":"ACTIVE","operator":null,"country":"US","launch_date":"1989-09-25","launch_site_code":"AFETR","launch_vehicle":null,"mission":null,"orbit_class":"UNKNOWN","rcs_meters":32.5418,"size_class":null,"mass_kg":null,"dimensions":null,"purposes":["comms"],"wikipedia_slug":null,"has_3d_model":false,"image_url":null,"decayed_at":null,"tle_current":{"epoch":"2026-09-19T18:21:35.879040Z","epoch_age_seconds":74704,"freshness":"FRESH","line1":"1 20253U 89077A   26262.76499860 -.00000364  00000+0  00000+0 0  9992","line2":"2 20253  12.3972 350.5815 0003042 228.5677 180.6861  1.00270693261514","mean_motion":1.00270693,"eccentricity":0.0003042,"inclination_deg":12.3972,"raan_deg":350.5815,"arg_perigee_deg":228.5677,"mean_anomaly_deg":180.6861,"bstar":0,"rev_number":26151,"period_min":1436.1125438716,"perigee_km":35774.074486622,"apogee_km":35799.727695797,"semimajor_km":42165.03809121,"source":"CELESTRAK","updated_at":"2026-09-20T09:00:35.114533Z"}}}